Home > Weather > Parnaíba > Past weeks

Flag for Brazil Past Weather in Parnaíba, Piauí, Brazil — Yesterday and Last 2 Weeks

Now
79 °F

Clear.


Feels Like: 82 °F
Forecast: 80 / 90 °F
Wind: No wind

Location: Teresina Aeroporto

Current Time: May 31, 2016 at 5:01:10 AM

Latest Report: May 31, 2016 at 4:00 AM


Visibility: 10 mi

Pressure: 29.83 "Hg

Humidity: 89%

Dew Point: 75 °F

Location of ParnaíbaLocation

Past Weather in Parnaíba — Graph

°F

Parnaíba Temperature Yesterday

Maximum temperature yesterday: 91 °F (at 12:00 PM)
Minimum temperature yesterday: 77 °F (at 5:00 AM)
Average temperature yesterday: 84 °F

High & Low Weather Summary for the Past Weeks

 TemperatureHumidityPressure
High93 °F (May 16, 2:00 PM)94% (May 16, 6:00 AM)30.01 "Hg (May 16, 6:00 AM)
Low75 °F (May 21, 5:00 AM)39% (May 28, 5:00 PM)29.80 "Hg (May 17, 4:00 PM)
Average84 °F73%29.91 "Hg
* Reported May 16 3:00 AM — May 31 3:00 AM, Parnaíba, Weather by CustomWeather, © 2016

Note: Actual official high and low records may vary slightly from our data, if they occured in-between our weather recording intervals... More about our weather records

Advertising

Parnaíba Weather History for the Previous 24 Hours

Scroll right to see more
 ConditionsComfort  
Time TempWeatherWind HumidityBarometerVisibility
3:00 AM
Tue, May 31
79 °FClear.No wind89%29.83 "Hg10 mi
2:00 AM79 °FClear.No wind89%29.83 "Hg10 mi
1:00 AM81 °FClear.No wind89%29.86 "Hg10 mi
12:00 AM81 °FClear.3 mph89%29.86 "Hg10 mi
11:00 PM
Mon, May 30
81 °FClear.3 mph84%29.83 "Hg10 mi
10:00 PM82 °FClear.No wind79%29.83 "Hg10 mi
9:00 PM82 °FClear.No wind79%29.83 "Hg10 mi
8:00 PM84 °FClear.No wind74%29.83 "Hg10 mi
7:00 PM86 °FClear.No wind66%29.80 "Hg10 mi
6:00 PM88 °FClear.No wind59%29.80 "Hg10 mi
5:00 PM91 °FPassing clouds.5 mph49%29.80 "HgN/A
4:00 PM91 °FPassing clouds.5 mph49%29.80 "HgN/A
3:00 PM91 °FScattered clouds.5 mph52%29.80 "HgN/A
2:00 PM91 °FScattered clouds.6 mph49%29.83 "HgN/A
1:00 PM91 °FPartly sunny.7 mph52%29.86 "HgN/A
12:00 PM91 °FPartly sunny.6 mph52%29.89 "HgN/A
11:00 AM90 °FScattered clouds.6 mph59%29.92 "HgN/A
10:00 AM84 °FPartly sunny.3 mph74%29.92 "HgN/A
9:00 AM82 °FScattered clouds.7 mph79%29.92 "HgN/A
8:00 AM81 °FOvercast.6 mph84%29.92 "HgN/A
7:00 AM79 °FScattered clouds.3 mph89%29.89 "HgN/A
6:00 AM79 °FScattered clouds.2 mph89%29.89 "HgN/A
5:00 AM77 °FClear.No wind94%29.86 "Hg10 mi
Weather by CustomWeather, © 2016

See weather overviewHow to use our weather pages